Location: Newark
(42.8481°N, 0.4872°E)
Time: 17:07:10
(UTC+00:00)

Vanguard 1 - Visible Passes

Search period start: 21 October 2020 00:00
Search period end: 31 October 2020 00:00
Orbit: 650 x 3832 km, 34.2° (Epoch: 20 October)

Date Brightness Start Highest point End Pass type
(mag) Time Alt. Az. Time Alt. Az. Time Alt. Az.
21 Oct 12.0 18:53:14 10° W 19:08:24 47° SSW 19:14:17 23° SE visible
21 Oct 12.8 21:21:59 10° W 21:27:00 15° SW 21:27:00 15° SW visible
22 Oct 12.0 19:14:48 10° W 19:28:56 40° SSW 19:34:09 24° SSE visible
23 Oct 12.5 17:08:26 10° W 17:28:08 60° SSW 17:39:16 10° ESE visible
23 Oct 12.2 19:36:30 10° W 19:49:20 33° SW 19:54:03 23° S visible
24 Oct 12.5 17:29:56 10° W 17:49:02 56° SSW 17:59:50 10° ESE visible
24 Oct 12.4 19:58:25 10° W 20:09:34 26° SW 20:14:00 19° S visible
25 Oct 12.6 17:51:29 10° W 18:09:47 51° SSW 18:20:16 10° SE visible
25 Oct 12.7 20:20:46 10° W 20:29:39 20° SW 20:34:01 15° SSW visible
26 Oct 12.7 18:13:06 10° W 18:30:24 45° SSW 18:40:31 10° SE visible
26 Oct 13.0 20:44:09 10° W 20:49:36 14° SW 20:54:01 10° SSW visible
27 Oct 12.8 18:34:49 10° W 18:50:51 38° SW 19:00:33 10° SSE visible
28 Oct 12.9 18:56:44 10° W 19:11:08 31° SW 19:20:17 10° SSE visible
29 Oct 13.1 16:49:36 10° W 17:10:27 54° SSW 17:23:17 10° SE visible
29 Oct 13.1 19:19:01 10° W 19:31:14 24° SW 19:39:34 10° S visible
30 Oct 13.1 17:11:12 10° W 17:31:09 48° SSW 17:43:35 10° SE visible
30 Oct 13.3 19:42:02 10° W 19:51:12 17° SW 19:58:06 10° SSW visible
